TimePST,TemperatureF,Dew PointF,Humidity,Sea Level PressureIn,VisibilityMPH,Wind Direction,Wind SpeedMPH,Gust SpeedMPH,PrecipitationIn,Events,Conditions,WindDirDegrees,DateUTC
12:53 AM,39.0,34.0,82,29.86,10.0,SE,23.0,33.4,N/A,,Overcast,140,2012-12-19 08:53:00
1:53 AM,39.9,34.0,79,29.81,10.0,SE,21.9,35.7,N/A,,Overcast,130,2012-12-19 09:53:00
2:53 AM,39.0,33.1,79,29.78,10.0,SE,24.2,40.3,N/A,,Overcast,130,2012-12-19 10:53:00
3:31 AM,39.2,33.8,81,29.74,10.0,SE,28.8,40.3,N/A,,Overcast,130,2012-12-19 11:31:00
3:53 AM,39.0,33.1,79,29.73,10.0,ESE,28.8,42.6,N/A,,Overcast,120,2012-12-19 11:53:00
4:05 AM,39.2,33.8,81,29.73,10.0,ESE,31.1,42.6,N/A,,Overcast,120,2012-12-19 12:05:00
4:53 AM,39.0,34.0,82,29.70,10.0,ESE,33.4,44.9,N/A,,Overcast,120,2012-12-19 12:53:00
5:16 AM,37.4,33.8,87,29.70,10.0,SE,28.8,39.1,N/A,,Overcast,130,2012-12-19 13:16:00
5:53 AM,37.9,33.1,83,29.69,10.0,SE,26.5,41.4,N/A,,Overcast,130,2012-12-19 13:53:00
6:15 AM,39.2,33.8,81,29.68,10.0,SE,27.6,42.6,N/A,,Overcast,130,2012-12-19 14:15:00
6:53 AM,39.0,33.1,79,29.66,10.0,SE,25.3,41.4,N/A,,Overcast,130,2012-12-19 14:53:00
7:53 AM,39.0,34.0,82,29.64,10.0,SE,29.9,40.3,N/A,,Overcast,130,2012-12-19 15:53:00
8:53 AM,39.9,35.1,83,29.62,10.0,SE,29.9,46.0,N/A,,Overcast,130,2012-12-19 16:53:00
9:32 AM,39.2,35.6,87,29.60,8.0,SE,34.5,51.8,0.00,Rain,Light Rain,140,2012-12-19 17:32:00
9:53 AM,39.0,36.0,89,29.60,10.0,SE,27.6,43.7,0.00,,Overcast,140,2012-12-19 17:53:00
10:53 AM,39.0,35.1,86,29.59,10.0,ESE,26.5,36.8,0.00,,Overcast,120,2012-12-19 18:53:00
11:53 AM,39.9,36.0,86,29.57,10.0,SE,25.3,36.8,N/A,,Overcast,130,2012-12-19 19:53:00
12:49 PM,41.0,35.6,81,29.54,10.0,SE,26.5,39.1,N/A,,Overcast,130,2012-12-19 20:49:00
12:53 PM,41.0,36.0,82,29.54,10.0,SE,23.0,39.1,N/A,,Overcast,130,2012-12-19 20:53:00
1:13 PM,41.0,35.6,81,29.54,10.0,SE,27.6,41.4,0.00,Rain,Light Rain,130,2012-12-19 21:13:00
1:20 PM,39.2,35.6,87,29.53,10.0,SE,26.5,38.0,0.00,Rain,Light Rain,130,2012-12-19 21:20:00
1:50 PM,41.0,37.4,87,29.53,10.0,SE,25.3,43.7,0.01,Rain,Light Rain,140,2012-12-19 21:50:00
1:53 PM,41.0,37.0,86,29.53,10.0,SE,27.6,43.7,0.01,Rain,Light Rain,140,2012-12-19 21:53:00
2:53 PM,42.1,37.0,82,29.54,10.0,SE,31.1,44.9,0.00,,Overcast,140,2012-12-19 22:53:00
3:44 PM,41.0,37.4,87,29.52,10.0,SE,26.5,43.7,N/A,,Mostly Cloudy,130,2012-12-19 23:44:00
3:53 PM,41.0,37.0,86,29.52,10.0,SE,25.3,36.8,N/A,,Mostly Cloudy,130,2012-12-19 23:53:00
4:19 PM,41.0,35.6,81,29.51,10.0,SE,27.6,40.3,N/A,,Mostly Cloudy,140,2012-12-20 00:19:00
4:49 PM,39.2,35.6,87,29.51,10.0,SE,28.8,40.3,N/A,,Overcast,130,2012-12-20 00:49:00
4:53 PM,39.9,36.0,86,29.52,10.0,SE,25.3,40.3,N/A,,Overcast,130,2012-12-20 00:53:00
5:53 PM,41.0,36.0,82,29.55,10.0,SE,27.6,36.8,N/A,,Overcast,140,2012-12-20 01:53:00
6:53 PM,41.0,36.0,82,29.55,10.0,SE,26.5,41.4,N/A,,Overcast,140,2012-12-20 02:53:00
7:46 PM,41.0,35.6,81,29.56,10.0,SE,25.3,36.8,N/A,,Mostly Cloudy,140,2012-12-20 03:46:00
7:53 PM,41.0,37.0,86,29.57,10.0,SE,20.7,36.8,N/A,,Mostly Cloudy,140,2012-12-20 03:53:00
8:05 PM,41.0,35.6,81,29.57,10.0,SE,21.9,38.0,N/A,,Overcast,140,2012-12-20 04:05:00
8:25 PM,41.0,37.4,87,29.58,10.0,SE,20.7,33.4,N/A,,Overcast,140,2012-12-20 04:25:00
8:53 PM,42.1,37.0,82,29.57,10.0,SSE,17.3,31.1,N/A,,Mostly Cloudy,150,2012-12-20 04:53:00
9:53 PM,42.1,37.9,85,29.56,10.0,SE,19.6,28.8,N/A,,Overcast,140,2012-12-20 05:53:00
10:14 PM,42.8,37.4,81,29.57,10.0,SE,20.7,33.4,N/A,,Overcast,140,2012-12-20 06:14:00
10:30 PM,42.8,37.4,81,29.57,10.0,SE,21.9,32.2,N/A,,Overcast,130,2012-12-20 06:30:00
10:53 PM,42.1,37.0,82,29.56,10.0,SE,19.6,31.1,N/A,,Overcast,130,2012-12-20 06:53:00
11:53 PM,42.1,37.0,82,29.55,10.0,SE,16.1,27.6,0.00,Rain,Light Rain,130,2012-12-20 07:53:00